User: anonymous   Login
Location: Unspecified
(0.0000°N, 0.0000°E)
Time: 18:53:46
(UTC+00:00)
Language:

KITSAT 1 - Orbit

View from above orbital plane
View from above orbital plane
View from above satellite
View from above satellite

Ground track
Ground track

The orbit data is extracted from the following two-line orbital elements,

1 22077U 92052B   19341.45892247 -.00000059  00000-0  94116-5 0  9996
2 22077  66.0849 234.5137 0014187 295.3199 237.9439 12.86530596283585
Epoch (UTC): 07 December 2019 11:00:50
Eccentricity: 0.0014187
inclination: 66.0849°
perigee height: 1304 km
apogee height: 1326 km
right ascension of ascending node: 234.5137°
argument of perigee: 295.3199°
revolutions per day: 12.86530596
mean anomaly at epoch: 237.9439°
orbit number at epoch: 28358

The dashed part of the orbit path shows where the satellite is in the earth's shadow,  

DLR